Las Cruces, NM

2:54 AM MDT on June 29, 2017 (GMT -0600)
Las Cruces International

Weather History for KLRU - January, 2015

Change the Weather History Date:

Monday, January 5, 2015

  Actual Average Record
Temperature  
Mean Temperature 40 °F -  
Max Temperature 55 °F 53 °F 66 °F (2003)
Min Temperature 24 °F 31 °F 19 °F (2013)
Degree Days  
Heating Degree Days 26    
Moisture  
Dew Point 24 °F    
Average Humidity 63    
Maximum Humidity 91    
Minimum Humidity 25    
Precipitation  
Precipitation 0.00 in - - ()
Sea Level Pressure  
Sea Level Pressure 30.45 in    
Wind  
Wind Speed 3 mph (North)    
Max Wind Speed 10 mph    
Max Gust Speed -    
Visibility 10 miles    
Events      
Averages and records for this station are not official NWS values.
T = Trace of Precipitation, MM = Missing Value Source: NWS Daily Summary

Daily Weather History Graph

Daily Weather History Graph

Search for Another Location

Airport or City:

Trip Planner

Search our weather history database for the weather conditions in past years. The results will help you decide how hot, cold, wet, or windy it might be!

Date:

Astronomy

Jan. 05, 2015 Rise Set
Actual Time 7:09 AM MST 5:16 PM MST
Civil Twilight 6:42 AM MST 5:43 PM MST
Nautical Twilight 6:12 AM MST 6:14 PM MST
Astronomical Twilight 5:42 AM MST 6:43 PM MST
Moon 6:08 PM MST (1/5) 7:13 AM MST (1/5)
Length of Visible Light 11h 00m
Length of Day
10h 07m
Full, 100% of the Moon is Illuminated
Jan 5
Full
Jan 13
Last Quarter
Jan 20
New
Jan 26
First Quarter
Feb 3
Full

Hourly Weather History & Observations

Time (MST) Temp. Windchill Dew Point Humidity Pressure Visibility Wind Dir Wind Speed Gust Speed Precip Events Conditions
12:15 AM 28.4 °F 23.3 °F 23.7 °F 83% 30.46 in 10.0 mi NNW 4.6 mph - N/A   Clear
12:35 AM 29.3 °F 24.3 °F 24.3 °F 81% 30.47 in 10.0 mi NNW 4.6 mph - N/A   Clear
12:55 AM 28.2 °F 23.1 °F 23.5 °F 83% 30.47 in 10.0 mi NW 4.6 mph - N/A   Clear
1:15 AM 27.3 °F - 23.2 °F 84% 30.47 in 10.0 mi Calm Calm - N/A   Clear
1:35 AM 26.6 °F - 23.0 °F 86% 30.47 in 10.0 mi Calm Calm - N/A   Clear
1:55 AM 26.2 °F - 22.8 °F 87% 30.47 in 10.0 mi Calm Calm - N/A   Clear
2:15 AM 25.5 °F - 22.3 °F 88% 30.47 in 10.0 mi Calm Calm - N/A   Clear
2:35 AM 24.6 °F - 21.7 °F 89% 30.46 in 10.0 mi Calm Calm - N/A   Clear
2:55 AM 24.8 °F - 21.7 °F 88% 30.46 in 10.0 mi Calm Calm - N/A   Clear
3:15 AM 27.0 °F - 22.8 °F 84% 30.46 in 10.0 mi Calm Calm - N/A   Clear
3:35 AM 26.1 °F 21.9 °F 22.1 °F 85% 30.46 in 10.0 mi North 3.5 mph - N/A   Clear
3:55 AM 26.1 °F 20.5 °F 22.6 °F 87% 30.45 in 10.0 mi NNW 4.6 mph - N/A   Clear
4:15 AM 25.9 °F 19.2 °F 22.1 °F 86% 30.45 in 10.0 mi North 5.8 mph - N/A   Clear
4:35 AM 26.2 °F 20.7 °F 22.1 °F 84% 30.45 in 10.0 mi North 4.6 mph - N/A   Clear
4:55 AM 26.6 °F 21.2 °F 22.5 °F 84% 30.45 in 10.0 mi NE 4.6 mph - N/A   Clear
5:15 AM 26.2 °F 22.1 °F 22.1 °F 84% 30.45 in 10.0 mi NNW 3.5 mph - N/A   Clear
5:35 AM 24.8 °F 17.9 °F 21.2 °F 86% 30.45 in 10.0 mi NNW 5.8 mph - N/A   Clear
5:55 AM 24.4 °F 17.5 °F 21.7 °F 89% 30.46 in 10.0 mi NW 5.8 mph - N/A   Clear
6:15 AM 25.2 °F 17.3 °F 22.8 °F 91% 30.46 in 10.0 mi NW 6.9 mph - N/A   Clear
6:35 AM 26.1 °F 18.4 °F 23.4 °F 90% 30.47 in 10.0 mi NW 6.9 mph - N/A   Clear
6:55 AM 25.9 °F 19.2 °F 23.4 °F 90% 30.48 in 10.0 mi NNW 5.8 mph - N/A   Clear
7:15 AM 25.7 °F 18.0 °F 23.2 °F 90% 30.49 in 10.0 mi NNW 6.9 mph - N/A   Clear
7:35 AM 27.3 °F 22.0 °F 24.4 °F 89% 30.49 in 10.0 mi NW 4.6 mph - N/A   Clear
7:55 AM 30.4 °F 26.9 °F 26.8 °F 86% 30.50 in 10.0 mi NW 3.5 mph - N/A   Clear
8:15 AM 32.0 °F 26.4 °F 27.5 °F 83% 30.51 in 10.0 mi NW 5.8 mph - N/A   Clear
8:35 AM 33.8 °F 28.6 °F 28.4 °F 81% 30.52 in 10.0 mi NW 5.8 mph - N/A   Clear
8:55 AM 35.4 °F 32.6 °F 28.8 °F 77% 30.53 in 10.0 mi NNW 3.5 mph - N/A   Clear
9:15 AM 37.2 °F 34.7 °F 29.5 °F 74% 30.53 in 10.0 mi East 3.5 mph - N/A   Clear
9:35 AM 36.9 °F 34.3 °F 28.6 °F 72% 30.53 in 10.0 mi East 3.5 mph - N/A   Clear
9:55 AM 38.5 °F - 28.9 °F 69% 30.53 in 10.0 mi Calm Calm - N/A   Clear
10:15 AM 40.6 °F - 29.5 °F 64% 30.52 in 10.0 mi Calm Calm - N/A   Clear
10:35 AM 43.3 °F - 29.3 °F 58% 30.52 in 10.0 mi Calm Calm - N/A   Clear
10:55 AM 45.5 °F - 29.3 °F 53% 30.51 in 10.0 mi Calm Calm - N/A   Clear
11:15 AM 46.8 °F - 27.0 °F 46% 30.50 in 10.0 mi East 3.5 mph - N/A   Clear
11:35 AM 47.7 °F - 26.1 °F 43% 30.49 in 10.0 mi Calm Calm - N/A   Clear
11:55 AM 48.2 °F - 26.2 °F 42% 30.47 in 10.0 mi East 3.5 mph - N/A   Clear
12:15 PM 49.3 °F - 25.3 °F 39% 30.46 in 10.0 mi ESE 3.5 mph - N/A   Clear
12:35 PM 50.0 °F - 24.3 °F 37% 30.45 in 10.0 mi ENE 3.5 mph - N/A   Clear
12:55 PM 51.1 °F - 23.4 °F 34% 30.44 in 10.0 mi Calm Calm - N/A   Clear
1:15 PM 52.5 °F - 22.3 °F 31% 30.44 in 10.0 mi NE 4.6 mph - N/A   Clear
1:35 PM 52.9 °F - 22.5 °F 31% 30.43 in 10.0 mi NNE 3.5 mph - N/A   Clear
1:55 PM 53.2 °F - 23.2 °F 31% 30.43 in 10.0 mi NE 4.6 mph - N/A   Clear
2:15 PM 54.1 °F - 22.6 °F 29% 30.42 in 10.0 mi Calm Calm - N/A   Clear
2:35 PM 54.0 °F - 21.4 °F 28% 30.42 in 10.0 mi East 3.5 mph - N/A   Clear
2:55 PM 54.9 °F - 21.7 °F 28% 30.41 in 10.0 mi East 3.5 mph - N/A   Clear
3:15 PM 55.0 °F - 20.8 °F 26% 30.41 in 10.0 mi NE 3.5 mph - N/A   Clear
3:35 PM 55.6 °F - 20.7 °F 26% 30.41 in 10.0 mi ENE 3.5 mph - N/A   Clear
3:55 PM 55.2 °F - 19.8 °F 25% 30.41 in 10.0 mi Calm Calm - N/A   Clear
4:15 PM 55.4 °F - 20.3 °F 25% 30.41 in 10.0 mi ENE 3.5 mph - N/A   Clear
4:35 PM 54.7 °F - 21.0 °F 27% 30.40 in 10.0 mi Calm Calm - N/A   Clear
4:55 PM 53.8 °F - 21.6 °F 28% 30.40 in 10.0 mi Calm Calm - N/A   Clear
5:15 PM 52.0 °F - 21.0 °F 30% 30.39 in 10.0 mi Calm Calm - N/A   Clear
5:35 PM 47.5 °F - 21.9 °F 36% 30.39 in 10.0 mi South 5.8 mph - N/A   Clear
5:55 PM 45.9 °F 44.6 °F 21.7 °F 38% 30.38 in 10.0 mi SSW 3.5 mph - N/A   Clear
6:15 PM 40.1 °F - 23.9 °F 52% 30.40 in 10.0 mi Calm Calm - N/A   Clear
6:35 PM 39.2 °F 37.0 °F 24.1 °F 55% 30.40 in 10.0 mi West 3.5 mph - N/A   Clear
6:55 PM 37.2 °F - 24.8 °F 61% 30.40 in 10.0 mi Calm Calm - N/A   Clear
7:15 PM 36.5 °F - 24.3 °F 61% 30.41 in 10.0 mi Calm Calm - N/A   Clear
7:35 PM 36.0 °F 33.3 °F 23.9 °F 62% 30.41 in 10.0 mi NW 3.5 mph - N/A   Clear
7:55 PM 35.8 °F - 23.7 °F 62% 30.41 in 10.0 mi Calm Calm - N/A   Clear
8:15 PM 36.7 °F 32.9 °F 23.0 °F 58% 30.42 in 10.0 mi ENE 4.6 mph - N/A   Clear
8:35 PM 37.9 °F 33.5 °F 22.8 °F 55% 30.42 in 10.0 mi NNE 5.8 mph - N/A   Clear
8:55 PM 37.8 °F 35.3 °F 22.1 °F 53% 30.43 in 10.0 mi NE 3.5 mph - N/A   Clear
9:15 PM 34.2 °F - 22.8 °F 63% 30.43 in 10.0 mi Calm Calm - N/A   Clear
9:35 PM 32.2 °F - 23.2 °F 69% 30.44 in 10.0 mi Calm Calm - N/A   Clear
9:55 PM 32.0 °F - 24.4 °F 74% 30.43 in 10.0 mi Calm Calm - N/A   Clear
10:15 PM 30.9 °F - 24.1 °F 76% 30.44 in 10.0 mi Calm Calm - N/A   Clear
10:35 PM 31.1 °F 27.7 °F 23.9 °F 75% 30.44 in 10.0 mi West 3.5 mph - N/A   Clear
10:55 PM 31.1 °F 26.4 °F 24.4 °F 76% 30.43 in 10.0 mi NW 4.6 mph - N/A   Clear
11:15 PM 33.4 °F 27.3 °F 24.3 °F 69% 30.44 in 10.0 mi NW 6.9 mph - N/A   Clear
11:35 PM 32.7 °F 25.7 °F 23.9 °F 70% 30.43 in 10.0 mi NNW 8.1 mph - N/A   Clear
11:55 PM 32.5 °F 24.2 °F 24.1 °F 71% 30.43 in 10.0 mi NNW 10.4 mph - N/A   Clear